Location: Dziadowski
(50.3833°N, 20.0333°E)
Time: 11:38:26
(UTC+00:00)

Cosmos 921 Rocket - Pass Details

Date: 18 January 2026
Orbit: 564 x 620 km, 75.8° (Epoch: 16 February)

Event Time Altitude Azimuth Distance (km) Brightness Sun altitude
Exits shadow 03:45:05 61° 116° (ESE) 667 3.3 -26.0°
Maximum altitude 03:45:13 62° 107° (ESE) 665 3.3 -25.9°
Drops below altitude 10° 03:49:23 10° 27° (NNE) 1,900 5.8 -25.3°
Sets 03:51:35 0° 24° (NNE) 2,796 6.7 -24.9°
